Regional Weather Roundup
Issued by NWS Austin/San Antonio, TX

Home | Current Version | Previous Version | Text Only | Print | Product List | Glossary On
Versions: 1 2 3 4 5 6 7 8 9 10 11 12 13 14 15 16 17 18 19 20 21 22 23 24 25 26 27 28 29 30 31 32 33 34 35 36 37 38 39 40 41 42 43 44 45 46 47 48 49 50
000
ASUS44 KEWX 241510
RWREWX
SOUTH TEXAS REGIONAL WEATHER ROUNDUP
NATIONAL WEATHER SERVICE AUSTIN/SAN ANTONIO TX
1000 AM CDT SUN JUN 24 2018

NOTE: "FAIR" INDICATED FEW OR NO CLOUDS BELOW 12,000 FEET WITH NO
SIGNIFICANT WEATHER AND/OR OBSTRUCTIONS TO VISIBILITY.

* - THESE STATIONS ARE NOT NWS OR FAA STATIONS...AND ARE NOT SUBJECT
    TO NWS AND FAA QUALITY CONTROL.

TXZ171-172-183>190-241600-
TEXAS HILL COUNTRY AND EDWARDS PLATEAU

CITY           SKY/WX    TMP DP  RH WIND       PRES   REMARKS
JUNCTION       PTSUNNY   81  72  74 S14       29.88S
*LLANO         MOSUNNY   88  70  55 S13       29.89F HX  92
BURNET         MOSUNNY   84  69  60 S20G32    29.89R
*HORSESHOE BAY MOSUNNY   85  69  57 S12G22    29.87S
*KERRVILLE     CLOUDY    79  69  72 S16G22    29.90S
*FREDERICKSBRG CLOUDY    80  66  62 S16G25    29.90S
*ROCKSPRINGS   PTSUNNY   79  70  73 S16G23    29.95S
*BOERNE STAGE  PTSUNNY   81  68  65 S13G20    29.91R
*CASTROVILLE   PTSUNNY   85  69  57 S14G21    29.88S
HONDO          MOSUNNY   86  73  65 S14G22    29.87S HX  93
*UVALDE        MOSUNNY   82  71  69 S8        29.86F
DEL RIO        CLOUDY    83  73  72 SE15G21   29.81F
LAUGHLIN AFB   PTSUNNY   83  71  66 S14       29.83S
CARRIZO SPRGS  SUNNY     86  70  58 SE12      29.82S HX  90
*EAGLE PASS    MOSUNNY   86  72  62 S12G17    29.83  HX  92
*FAITH RANCH   SUNNY     86  72  62 SE15      29.82F HX  92
$$

TXZ173-191>194-202-209-217>225-228-241600-
CENTRAL AND SOUTH CENTRAL TEXAS

CITY           SKY/WX    TMP DP  RH WIND       PRES   REMARKS
GEORGETOWN     SUNNY     85  70  60 S25G32    29.88R
AUSTIN/BERGSTM MOSUNNY   85  72  65 S20G29    29.86R HX  91
AUSTIN/MABRY   MOSUNNY   86  70  58 S8G17     29.87S HX  90
*AUSTIN/EXEC   PTSUNNY   84  72  65 S16G24    29.87S
*LAGO VISTA    MOSUNNY   83  71  64 S13G28    29.89S
SAN MARCOS     SUNNY     84  72  65 S20G25    29.87F
NEW BRAUNFELS  MOSUNNY   85  71  63 S17G29    29.86R HX  90
RANDOLPH AFB   SUNNY     84  71  64 S16G24    29.87S
PT SAN ANTONIO SUNNY     85  71  62 S13       29.85S HX  90
SAN ANTONIO    PTSUNNY   82  70  66 S14G20    29.88R
STINSON FIELD  MOSUNNY   87  73  62 S9        29.85R HX  94
*LA GRANGE     MOSUNNY   85  77  75 S13       29.86R HX  95
*GIDDINGS      MOSUNNY   83  72  68 S17G26    29.89R
*GONZALES      PTSUNNY   85  74  69 S17G24    29.87S HX  91
$$

TXZ163>164-176>182-195>201-210>213-226-227-235-241600-
SOUTHEAST TEXAS

CITY           SKY/WX    TMP DP  RH WIND       PRES   REMARKS
COLLEGE STN    PTSUNNY   86  75  69 S21G28    29.89R HX  95
*BRYAN         MOSUNNY   84  74  71 S16G25    29.90S HX  92
*CALDWELL      PTSUNNY   87  74  67 S22G28    29.89R HX  95
*CROCKETT      MOSUNNY   86  75  70 S14G21    29.94S HX  95
*BRENHAM       PTSUNNY   84  75  74 S13G20    29.90R HX  92
HUNTSVILLE     PTSUNNY   86  75  69 S12G23    29.91S HX  95
CONROE         PTSUNNY   86  77  74 S16       29.92S HX  97
HOUSTON BUSH   PTSUNNY   87  77  72 S9        29.91R HX  99
HOUSTON HOBBY  PTSUNNY   87  77  72 S15G22    29.91R HX  99
*HOUSTON SW AP PTSUNNY   85  77  77 S9        29.92R HX  96
PEARLAND       FAIR      86  76  71 S9        29.92R HX  96
HOUSTON HOOKS  PTSUNNY   86  77  74 S10       29.91S HX  97
ELLINGTON FLD  MOSUNNY   86  81  84 S14       29.94R HX 102
SUGAR LAND     CLOUDY    89  77  67 S12       29.90R HX 101
*HOUSTON EXEC    N/A    N/A N/A N/A MISG        N/A
*CLEVELAND MUN FAIR      85  74  69 S10       29.93F HX  93
*WHARTON       CLOUDY    85  74  70 S10       29.90R HX  93
*COLUMBUS      PTSUNNY   84  75  74 S14G22    29.89R HX  92
*EAGLE LAKE    SUNNY     88  77  69 S13G25    29.88S HX  99
$$

TXZ214>216-236>238-241600-
THE UPPER TEXAS COAST

CITY           SKY/WX    TMP DP  RH WIND       PRES   REMARKS
*ORANGE        FAIR      86  77  74 SW12G20   29.97R HX  98
PORT ARTHUR    FAIR      88  75  65 S18       29.94R HX  97
GALVESTON      PTSUNNY   87  79  76 S18       29.92R HX 101
ANGLETON       CLOUDY    88  77  69 S13G20    29.91R HX 100
*BAY CITY      CLOUDY    86  77  74 S15       29.90R HX  97
PALACIOS       CLOUDY    86  78  77 S14G22    29.89R HX  98
$$

TXZ229>234-239>247-241600-
TEXAS COASTAL BEND AND RIO GRANDE PLAINS

CITY           SKY/WX    TMP DP  RH WIND       PRES   REMARKS
VICTORIA       CLOUDY    86  73  65 S16G26    29.87F HX  93
*BEEVILLE      CLOUDY    84  76  76 S15G22    29.86F HX  92
ROCKPORT       PTSUNNY   86  76  71 S10G18    29.85S HX  96
*PORT ARANSAS  CLOUDY    85  78  78 S16       29.87S HX  97
*PORT LAVACA   CLOUDY    85  75  73 S15       29.88S HX  94
*INGLESIDE     PTSUNNY   87  76  71 S14G20    29.85F HX  97
CORPUS CHRISTI PTSUNNY   84  78  82 S13       29.84F HX  95
CORPUS NAS     MOSUNNY   87  78  74 S14       29.85R HX 100
*ROBSTOWN      PTSUNNY   83  76  81 S9        29.85F HX  91
ALICE          PTSUNNY   85  75  72 S12       29.83F HX  93
KINGSVILLE NAS PTSUNNY   85  76  74 S16       29.83F HX  94
COTULLA        SUNNY     85  73  67 S14G23    29.82F HX  91
LAREDO         SUNNY     88  71  57 S13       29.83S HX  94
$$

TXZ248>255-241600-
DEEP SOUTH TEXAS

CITY           SKY/WX    TMP DP  RH WIND       PRES   REMARKS
BROWNSVILLE    PTSUNNY   89  77  67 SE15      29.84R HX 101
PORT ISABEL    FAIR      87  75  67 SE17      29.83R HX  96
*SOUTH PADRE   NOT AVBL
HARLINGEN      MOSUNNY   87  78  74 S16       29.82S HX 100
*HEBBRONVILLE  SUNNY     84  69  61 S12G18    29.85S
MCALLEN        PTSUNNY   88  78  72 SE16G23   29.81F HX 101
*WESLACO       NOT AVBL
FALFURRIAS     PTSUNNY   87  74  66 S15       29.82S HX  95
EDINBURG       FAIR      88  75  65 SE15G22   29.81F HX  97
*ZAPATA        FAIR      85  70  60 S13       29.81S HX  90
$$

TXZ213>215-236>238-242>244-246-247-251-254-255-241600-
CMAN STATIONS

STATION/POSITION TIME  TEMP    WIND        PRES    WAVE
                       AIR SEA DIR/SP/G            HT/PER
                 (UTC) (F)     (DEG/KT/KT) (MB)    (FT/S)
SABINE PASS      1436   84 87  190/ 14/ 19 1014.7
SEA RIM ST PARK  1500   84     190/ 13/ 17 1014.3
NORTH JETTY/GLS  1436   83 83  180/ 18/ 21 1012.6
EAGLE POINT      1448   84 84  200/ 16/ 18 1013.1
MORGANS POINT    1436   86 84  170/  6/ 12 1012.9
MISSION/ARANSAS  1400          150/  8     1012.0
PORT O`CONNOR    1436   83 84  180/ 16/ 19 1011.3
PORT ARANSAS     1500   83 83  150/ 17/ 18 1010.9
MALAQUITE BEACH  1436   83 83  140/ 19/ 21 1010.1
BAFFIN BAY       1436   83 83  140/ 15/ 20 1010.4
PORT ISABEL      1436   83 84  140/ 15/ 17 1010.6
$$



USA.gov is the U.S. government's official web portal to all federal, state and local government web resources and services.